Tracking 30009 objects as of 7-Dec-2024
HD Live streaming from Space Station
objects crossing your sky now

COSMOS 1341

Track COSMOS 1341 now!
COSMOS 1341 is classified as:


NORAD ID: 13080
Int'l Code: 1982-016A
Perigee: 4,411.4 km
Apogee: 35,917.8 km
Inclination: 70.7 °
Period: 717.0 minutes
Semi major axis: 26535 km
RCS: 8.091 m2 (large)
Launch date: March 3, 1982
Source: Commonwealth of Independent States (former USSR) (CIS)
Launch site: PLESETSK MISSILE AND SPACE COMPLEX (PKMTR)
Your satellite tracking list
Your tracking list is empty




NASA's NSSDC Master Catalog

Two Line Element Set (TLE):
1 13080U 82016A   24342.11082656 -.00000690  00000-0  00000-0 0  9999
2 13080  70.6684  30.6234 5936623 328.0437   6.9366  2.00844107223579
Source of the keplerian elements: AFSPC